Hurghada, Egypt

12:11 PM EET on February 25, 2017 (GMT +0200)
Hurghada International

Weather History for HEGN - May, 2013

Change the Weather History Date:

Friday, May 10, 2013

  Actual Average Record
Temperature  
Mean Temperature 85 °F -  
Max Temperature 98 °F 90 °F 102 °F (2016)
Min Temperature 72 °F 74 °F 66 °F (2011)
Cooling Degree Days 20    
Growing Degree Days 35 (Base 50)    
Moisture  
Dew Point 56 °F    
Average Humidity 38    
Maximum Humidity 61    
Minimum Humidity 22    
Precipitation  
Precipitation 0.00 in - - ()
Sea Level Pressure  
Sea Level Pressure 29.81 in    
Wind  
Wind Speed 7 mph ()    
Max Wind Speed 14 mph    
Max Gust Speed -    
Visibility 6.0 miles    
Events      
Averages and records for this station are not official NWS values.
T = Trace of Precipitation, MM = Missing Value Source: Averaged Metar Reports

Daily Weather History Graph

Daily Weather History Graph

Search for Another Location

Airport or City:

Trip Planner

Search our weather history database for the weather conditions in past years. The results will help you decide how hot, cold, wet, or windy it might be!

Date:

Astronomy

May. 10, 2013 Rise Set
Actual Time 5:00 AM EET 6:23 PM EET
Civil Twilight 4:34 AM EET 6:48 PM EET
Nautical Twilight 4:05 AM EET 7:18 PM EET
Astronomical Twilight 3:34 AM EET 7:49 PM EET
Moon 5:09 AM EET (5/10) 6:53 PM EET (5/10)
Length of Visible Light 14h 13m
Length of Day
13h 23m
New Moon, 0% of the Moon is Illuminated
May 10
New Moon
May 18
First Quarter
May 25
Full
May 31
Last Quarter
Jun 8
New

Hourly Weather History & Observations

Time (EET) Temp. Heat Index Dew Point Humidity Pressure Visibility Wind Dir Wind Speed Gust Speed Precip Events Conditions
12:00 AM 78.8 °F - 48.2 °F 34% 29.77 in - WNW 6.9 mph - N/A   Clear
1:00 AM 78.8 °F - 48.2 °F 34% 29.77 in - NW 9.2 mph - N/A   Clear
2:00 AM 78 °F - 48 °F 25% 29.79 in 6 mi NNW 6.9 mph - -  
2:00 AM 78.8 °F - 48.2 °F 34% 29.77 in - NNW 6.9 mph - N/A   Clear
3:00 AM 77.0 °F - 50.0 °F 39% 29.77 in - NNW 6.9 mph - N/A   Clear
4:00 AM 75.2 °F - 51.8 °F 44% 29.77 in - NNW 11.5 mph - N/A   Clear
5:00 AM 73.4 °F - 51.8 °F 47% 29.80 in - NW 9.2 mph - N/A   Clear
6:00 AM 75.2 °F - 51.8 °F 44% 29.80 in - NW 11.5 mph - N/A   Clear
7:00 AM 80.6 °F - 50.0 °F 34% 29.83 in - NNW 9.2 mph - N/A   Clear
8:00 AM 84 °F - 52 °F 23% 29.85 in 6 mi North 11.5 mph - -  
8:00 AM 84.2 °F - 51.8 °F 33% 29.83 in - North 11.5 mph - N/A   Clear
9:00 AM 87.8 °F 86.1 °F 55.4 °F 33% 29.86 in - North 11.5 mph - N/A   Clear
10:00 AM 91.4 °F 89.4 °F 55.4 °F 29% 29.86 in - North 13.8 mph - N/A   Clear
11:00 AM 93.2 °F 91.3 °F 55.4 °F 28% 29.86 in - North 11.5 mph - N/A   Clear
12:00 PM 96.8 °F - 51.8 °F 22% 29.83 in - ENE 11.5 mph - N/A   Clear
1:00 PM 96.8 °F 98.0 °F 62.6 °F 32% 29.80 in - ENE 9.2 mph - N/A   Clear
2:00 PM 95 °F - 68 °F 32% 29.82 in 6 mi ESE 5.8 mph - -  
2:00 PM 95.0 °F 99.5 °F 68.0 °F 41% 29.80 in - ESE 5.8 mph - N/A   Clear
4:00 PM 91.4 °F 95.4 °F 68.0 °F 46% 29.77 in - ESE 9.2 mph - N/A   Clear
5:00 PM 87.8 °F 87.6 °F 60.8 °F 40% 29.77 in - SE 6.9 mph - N/A   Clear
6:00 PM 86.0 °F 84.9 °F 57.2 °F 37% 29.77 in - SSE 6.9 mph - N/A   Clear
7:00 PM 82.4 °F 83.4 °F 62.6 °F 51% 29.80 in - SSE 4.6 mph - N/A   Clear
8:00 PM 80 °F - 56 °F 33% 29.83 in 6 mi ESE 4.6 mph - -  
8:00 PM 80.6 °F 80.5 °F 55.4 °F 42% 29.83 in - ESE 4.6 mph - N/A   Clear
9:00 PM 78.8 °F - 60.8 °F 54% 29.83 in - ESE 4.6 mph - N/A   Clear
10:00 PM 78.8 °F - 64.4 °F 61% 29.83 in - Calm Calm - N/A   Clear
11:00 PM 77.0 °F - 62.6 °F 61% 29.83 in - North 3.5 mph - N/A   Clear